Powrót do katalogu

DELTA 1 DEB

AktywnySSO
NORAD 13538·DEBRIS·🇺🇸 United States

Wystrzelony Jul 29, 1976 z Vandenberg Space Force Base

Loading…

Następne Przeloty (najbliższe 24 godziny)

TLE

ŚwieżeSource: Space-Track

Epoka: Sep 13, 2026, 22:34 UTC

1 13538U 76077EL  26256.94096860  .00000008  00000-0  47072-3 0  9991
2 13538 102.0363 239.7512 0107446 294.9381  87.8476 12.22144251 56931

Śledź DELTA 1 DEB w czasie rzeczywistym z AllMySat

Download on the App Store